IV3IYL-13 Weather Reports


time (UTC)temp
C
wind
direction
speed
KPH
gust
KPH
rain 1hr
cm
rain 24hr
cm
rain mn
cm
humidity
%
barometer
mb
20260906080144 26 0.0 0.0 0.00 0.00 0.00 88 1022.4
20260906075129 25 0.0 0.0 0.00 0.00 0.00 90 1022.4
20260906074119 25 0.0 0.0 0.00 0.00 0.00 91 1022.3
20260906073119 25 0.0 0.0 0.00 0.00 0.00 97 1022.4
20260906072129 25 0.0 0.0 0.00 0.00 0.00 96 1022.3
20260906071119 24 0.0 0.0 0.00 0.00 0.00 95 1022.1
20260906070119 24 0.0 0.0 0.00 0.00 0.00 10 1022.1
20260906065119 24 0.0 0.0 0.00 0.00 0.00 10 1022.0
20260906064119 23 0.0 0.0 0.00 0.00 0.00 10 1021.9
20260906063119 23 0.0 0.0 0.00 0.00 0.00 10 1021.9
20260906062120 23 0.0 0.0 0.00 0.00 0.00 10 1021.8
20260906061119 22 0.0 0.0 0.00 0.00 0.00 10 1021.7
20260906060119 22 0.0 0.0 0.00 0.00 0.00 10 1021.5
20260906055119 22 0.0 0.0 0.00 0.00 0.00 10 1021.4
20260906054119 21 0.0 0.0 0.00 0.00 0.00 10 1021.2
20260906053118 21 0.0 0.0 0.00 0.00 0.00 10 1021.1
20260906052134 21 0.0 0.0 0.00 0.00 0.00 10 1021.1
20260906051118 21 0.0 0.0 0.00 0.00 0.00 10 1021.0
20260906050118 21 0.0 0.0 0.00 0.00 0.00 10 1021.0
20260906045129 21 0.0 0.0 0.00 0.00 0.00 10 1020.9
20260906044119 21 0.0 0.0 0.00 0.00 0.00 10 1020.7
20260906043119 21 0.0 0.0 0.00 0.00 0.00 10 1020.6
20260906042129 21 0.0 0.0 0.00 0.00 0.00 10 1020.6
20260906041119 21 0.0 0.0 0.00 0.00 0.00 10 1020.6
20260906040118 21 0.0 0.0 0.00 0.00 0.00 10 1020.5
20260906035119 21 0.0 0.0 0.00 0.00 0.00 10 1020.5
20260906034118 21 0.0 0.0 0.00 0.00 0.00 10 1020.3
20260906033118 20 0.0 0.0 0.00 0.00 0.00 10 1020.3
20260906032118 20 0.0 0.0 0.00 0.00 0.00 10 1020.3
20260906031118 20 0.0 0.0 0.00 0.00 0.00 10 1020.1
20260906030118 20 0.0 0.0 0.00 0.00 0.00 10 1020.0
20260906025118 20 0.0 0.0 0.00 0.00 0.00 10 1020.0
20260906024128 21 0.0 0.0 0.00 0.00 0.00 10 1020.0
20260906023118 21 0.0 0.0 0.00 0.00 0.00 10 1020.0
20260906022118 21 0.0 0.0 0.00 0.00 0.00 10 1019.9
20260906021118 21 0.0 0.0 0.00 0.00 0.00 10 1020.0
20260906020123 21 0.0 0.0 0.00 0.00 0.00 10 1019.8
20260906015118 21 0.0 0.0 0.00 0.00 0.00 10 1019.7
20260906014118 21 0.0 0.0 0.00 0.00 0.00 10 1019.7
20260906013118 21 0.0 0.0 0.00 0.00 0.00 10 1019.7
20260906012118 21 0.0 0.0 0.00 0.00 0.00 10 1019.7
20260906011118 21 0.0 0.0 0.00 0.00 0.00 10 1019.6
20260906010128 21 0.0 0.0 0.00 0.00 0.00 10 1019.4
20260906005118 21 0.0 0.0 0.00 0.00 0.00 10 1019.4
20260906004118 21 0.0 0.0 0.00 0.00 0.00 10 1019.5
20260906003117 21 0.0 0.0 0.00 0.00 0.00 10 1019.5
20260906002118 22 0.0 0.0 0.00 0.00 0.00 10 1019.6
20260906001133 21 0.0 0.0 0.00 0.00 0.00 10 1019.5
20260906000118 22 0.0 0.0 0.00 0.00 0.00 10 1019.5
20260905235117 22 0.0 0.0 0.00 0.00 0.00 10 1019.4
20260905234117 22 0.0 0.0 0.00 0.00 0.00 10 1019.3
20260905233117 22 0.0 0.0 0.00 0.00 0.00 10 1019.4
20260905232127 22 0.0 0.0 0.00 0.00 0.00 10 1019.3
20260905231118 22 0.0 0.0 0.00 0.00 0.00 10 1019.3
20260905230117 22 0.0 0.0 0.00 0.00 0.00 10 1019.3
20260905225117 22 0.0 0.0 0.00 0.00 0.00 10 1019.2
20260905224128 22 0.0 0.0 0.00 0.00 0.00 10 1019.2
20260905223117 22 0.0 0.0 0.00 0.00 0.00 10 1019.1
20260905222118 23 0.0 0.0 0.00 0.00 0.00 10 1019.1
20260905221117 23 0.0 0.0 0.00 0.00 0.00 10 1019.0
20260905220117 23 0.0 0.0 0.00 0.00 0.00 10 1018.9
20260905215117 23 0.0 0.0 0.00 0.00 0.00 10 1018.7
20260905214117 23 0.0 0.0 0.00 0.00 0.00 10 1018.7
20260905213117 23 0.0 0.0 0.00 0.00 0.00 10 1018.8
20260905212117 23 0.0 0.0 0.00 0.00 0.00 10 1018.8
20260905211117 23 0.0 0.0 0.00 0.00 0.00 10 1018.8
20260905210117 23 0.0 0.0 0.00 0.00 0.00 10 1018.7
20260905205117 23 0.0 0.0 0.00 0.00 0.00 10 1018.7
20260905204117 23 0.0 0.0 0.00 0.00 0.00 10 1018.7
20260905203127 23 0.0 0.0 0.00 0.00 0.00 10 1018.6
20260905202117 23 0.0 0.0 0.00 0.00 0.00 10 1018.5
20260905201117 24 0.0 0.0 0.00 0.00 0.00 10 1018.2
20260905200117 24 0.0 0.0 0.00 0.00 0.00 10 1018.1
20260905195117 24 0.0 0.0 0.00 0.00 0.00 10 1018.0
20260905194116 23 0.0 0.0 0.00 0.00 0.00 10 1017.9
20260905193127 23 0.0 0.0 0.00 0.00 0.00 10 1017.8
20260905192117 23 0.0 0.0 0.00 0.00 0.00 10 1017.7
20260905191117 23 0.0 0.0 0.00 0.00 0.00 10 1017.5
20260905190116 23 0.0 0.0 0.00 0.00 0.00 10 1017.4
20260905185117 24 0.0 0.0 0.00 0.00 0.00 10 1017.3
20260905184116 24 0.0 0.0 0.00 0.00 0.00 10 1017.1
20260905183117 24 0.0 0.0 0.00 0.00 0.00 10 1016.9
20260905182116 24 0.0 0.0 0.00 0.00 0.00 10 1016.7
20260905181116 25 0.0 0.0 0.00 0.00 0.00 10 1016.6
20260905180116 25 0.0 0.0 0.00 0.00 0.00 10 1016.4
20260905175116 25 0.0 0.0 0.00 0.00 0.00 10 1016.3
20260905174116 26 0.0 0.0 0.00 0.00 0.00 10 1016.1
20260905173116 26 0.0 0.0 0.00 0.00 0.00 10 1016.1
20260905172116 26 0.0 0.0 0.00 0.00 0.00 10 1016.0
20260905171116 27 0.0 0.0 0.00 0.00 0.00 10 1015.8
20260905170132 27 0.0 0.0 0.00 0.00 0.00 10 1015.8
20260905165131 28 0.0 0.0 0.00 0.00 0.00 91 1015.7
20260905164116 28 0.0 0.0 0.00 0.00 0.00 84 1015.7
20260905163116 29 0.0 0.0 0.00 0.00 0.00 66 1015.5
20260905162136 29 0.0 0.0 0.00 0.00 0.00 67 1015.4
20260905161116 28 0.0 0.0 0.00 0.00 0.00 68 1015.5
20260905160116 28 0.0 0.0 0.00 0.00 0.00 73 1015.4
20260905155116 28 0.0 0.0 0.00 0.00 0.00 81 1015.5
20260905154116 29 0.0 0.0 0.00 0.00 0.00 61 1015.4
20260905153116 30 0.0 0.0 0.00 0.00 0.00 62 1015.3
20260905152116 30 0.0 0.0 0.00 0.00 0.00 56 1015.2
20260905151116 30 0.0 0.0 0.00 0.00 0.00 55 1015.1
20260905150116 30 0.0 0.0 0.00 0.00 0.00 55 1015.2
20260905145116 30 0.0 0.0 0.00 0.00 0.00 54 1015.4
20260905144116 29 0.0 0.0 0.00 0.00 0.00 57 1015.3
20260905143115 30 0.0 0.0 0.00 0.00 0.00 54 1015.3
20260905142116 30 0.0 0.0 0.00 0.00 0.00 53 1015.3
20260905141115 30 0.0 0.0 0.00 0.00 0.00 53 1015.2
20260905140116 30 0.0 0.0 0.00 0.00 0.00 52 1015.3
20260905135131 30 0.0 0.0 0.00 0.00 0.00 53 1015.5
20260905134141 30 0.0 0.0 0.00 0.00 0.00 55 1015.5
20260905133115 29 0.0 0.0 0.00 0.00 0.00 51 1015.4
20260905132115 29 0.0 0.0 0.00 0.00 0.00 50 1015.6
20260905131116 29 0.0 0.0 0.00 0.00 0.00 50 1015.7
20260905130126 29 0.0 0.0 0.00 0.00 0.00 50 1015.7
20260905125115 29 0.0 0.0 0.00 0.00 0.00 50 1015.8
20260905124125 29 0.0 0.0 0.00 0.00 0.00 45 1015.8
20260905123125 29 0.0 0.0 0.00 0.00 0.00 47 1016.1
20260905122115 29 0.0 0.0 0.00 0.00 0.00 49 1016.1
20260905121115 28 0.0 0.0 0.00 0.00 0.00 49 1016.1
20260905120115 28 0.0 0.0 0.00 0.00 0.00 50 1016.1
20260905115115 28 0.0 0.0 0.00 0.00 0.00 53 1016.2
20260905114145 28 0.0 0.0 0.00 0.00 0.00 54 1016.2
20260905113125 28 0.0 0.0 0.00 0.00 0.00 52 1016.3
20260905112115 28 0.0 0.0 0.00 0.00 0.00 56 1016.3
20260905111115 28 0.0 0.0 0.00 0.00 0.00 64 1016.4
20260905110115 28 0.0 0.0 0.00 0.00 0.00 65 1016.5
20260905105130 28 0.0 0.0 0.00 0.00 0.00 66 1016.5
20260905104115 27 0.0 0.0 0.00 0.00 0.00 77 1016.5
20260905103115 27 0.0 0.0 0.00 0.00 0.00 77 1016.6
20260905102115 27 0.0 0.0 0.00 0.00 0.00 95 1016.6
20260905101115 26 0.0 0.0 0.00 0.00 0.00 10 1016.6
20260905100115 26 0.0 0.0 0.00 0.00 0.00 99 1016.7
20260905095115 26 0.0 0.0 0.00 0.00 0.00 10 1016.8
20260905094115 26 0.0 0.0 0.00 0.00 0.00 10 1016.7
20260905093115 26 0.0 0.0 0.00 0.00 0.00 10 1016.8
20260905092115 26 0.0 0.0 0.00 0.00 0.00 10 1016.7
20260905091115 26 0.0 0.0 0.00 0.00 0.00 10 1016.8
20260905090114 26 0.0 0.0 0.00 0.00 0.00 10 1016.6
20260905085114 25 0.0 0.0 0.00 0.00 0.00 10 1016.7
20260905084125 25 0.0 0.0 0.00 0.00 0.00 10 1016.4
20260905083115 25 0.0 0.0 0.00 0.00 0.00 10 1016.4
20260905082114 25 0.0 0.0 0.00 0.00 0.00 10 1016.4
20260905081115 25 0.0 0.0 0.00 0.00 0.00 10 1016.5